Weather History for Selawik, AK

Change the Weather History Date:

Friday, May 10, 2013

  Actual Average Record
Temperature  
Mean Temperature 21 °F -  
Max Temperature 30 °F 34 °F 62 °F (2005)
Min Temperature 12 °F 22 °F 1 °F (2001)
Degree Days  
Heating Degree Days 44    
Moisture  
Dew Point 21 °F    
Average Humidity 93    
Maximum Humidity 100    
Minimum Humidity 86    
Precipitation  
Precipitation 0.00 in - - ()
Sea Level Pressure  
Sea Level Pressure 30.21 in    
Wind  
Wind Speed 5 mph (WSW)    
Max Wind Speed 12 mph    
Max Gust Speed -    
Visibility 7 miles    
Events      
Averages and records for this station are not official NWS values.
T = Trace of Precipitation, MM = Missing Value Source: NWS Daily Summary

Daily Weather History Graph

Daily Weather History Graph

Search for Another Location

Airport:

Trip Planner

Search our weather history database for the weather conditions in past years. The results will help you decide how hot, cold, wet, or windy it might be!

Date:

Astronomy

May. 10, 2013 Rise Set
Actual Time 5:11 AM AKDT 12:04 AM AKDT
Civil Twilight 3:08 AM AKDT 2:03 AM AKDT
Nautical Twilight Sun does not rise Sun does not rise
Astronomical Twilight Sun does not rise Sun does not rise
Moon 5:42 AM AKDT (5/10) 12:04 AM AKDT (5/10)
Length of Visible Light 22h 55m
Length of Day
18h 52m
New Moon, 1% of the Moon is Illuminated
May 10
New Moon
May 17
First Quarter
May 24
Full
May 31
Last Quarter
Jun 8
New

Hourly Weather History & Observations

Time (AKDT) Temp. Windchill Dew Point Humidity Pressure Visibility Wind Dir Wind Speed Gust Speed Precip Events Conditions
12:16 AM 24.8 °F 19.1 °F 23.0 °F 93% 30.29 in 10.0 mi West 4.6 mph - N/A   Clear
12:36 AM 24.8 °F 20.5 °F 24.8 °F 100% 30.30 in 10.0 mi WSW 3.5 mph - N/A   Clear
12:56 AM 24.8 °F 20.5 °F 23.0 °F 93% 30.29 in 10.0 mi SW 3.5 mph - N/A   Clear
1:16 AM 23.0 °F 15.8 °F 21.2 °F 93% 30.29 in 10.0 mi SW 5.8 mph - N/A   Clear
1:36 AM 23.0 °F 18.4 °F 21.2 °F 93% 30.29 in 10.0 mi South 3.5 mph - N/A   Clear
1:56 AM 23.0 °F 15.8 °F 21.2 °F 93% 30.29 in 10.0 mi SW 5.8 mph - N/A   Clear
2:16 AM 23.0 °F 15.8 °F 21.2 °F 93% 30.29 in 10.0 mi WSW 5.8 mph - N/A   Clear
2:36 AM 23.0 °F 18.4 °F 21.2 °F 93% 30.28 in 10.0 mi WSW 3.5 mph - N/A   Scattered Clouds
2:56 AM 21.2 °F 14.9 °F 21.2 °F 100% 30.28 in 0.5 mi SW 4.6 mph - N/A   Overcast
3:16 AM 21.2 °F 13.6 °F 21.2 °F 100% 30.27 in 0.2 mi SW 5.8 mph - N/A   Overcast
3:36 AM 19.4 °F 12.8 °F 19.4 °F 100% 30.27 in 0.2 mi SSW 4.6 mph - N/A   Overcast
3:56 AM 19.4 °F 12.8 °F 17.6 °F 93% 30.27 in 0.5 mi SW 4.6 mph - N/A   Overcast
4:16 AM 19.4 °F - 17.6 °F 93% 30.26 in 0.2 mi Calm Calm - N/A   Overcast
4:36 AM 19.4 °F 11.5 °F 17.6 °F 93% 30.26 in 0.2 mi West 5.8 mph - N/A   Overcast
4:56 AM 19.4 °F 12.8 °F 17.6 °F 93% 30.26 in 0.2 mi SW 4.6 mph - N/A   Overcast
5:16 AM 17.6 °F - 15.8 °F 93% 30.26 in 0.2 mi Calm Calm - N/A   Overcast
5:36 AM 17.6 °F 12.3 °F 15.8 °F 93% 30.25 in 0.2 mi West 3.5 mph - N/A   Overcast
5:56 AM 15.8 °F - 15.8 °F 100% 30.25 in 0.2 mi Calm Calm - N/A   Overcast
6:16 AM 15.8 °F 10.2 °F 12.2 °F 86% 30.25 in 0.2 mi NNE 3.5 mph - N/A   Overcast
6:36 AM 15.8 °F 10.2 °F 14.0 °F 93% 30.25 in 0.2 mi ENE 3.5 mph - N/A   Overcast
6:56 AM 14.0 °F - 12.2 °F 93% 30.24 in 0.2 mi Calm Calm - N/A   Overcast
7:16 AM 14.0 °F 8.2 °F 12.2 °F 93% 30.23 in 0.2 mi ENE 3.5 mph - N/A   Overcast
7:36 AM 14.0 °F 8.2 °F 12.2 °F 93% 30.24 in 0.2 mi ENE 3.5 mph - N/A   Overcast
7:56 AM 12.2 °F 6.1 °F 12.2 °F 100% 30.24 in 0.2 mi ENE 3.5 mph - N/A   Overcast
8:16 AM 12.2 °F 6.1 °F 12.2 °F 100% 30.24 in 0.2 mi East 3.5 mph - N/A   Overcast
8:36 AM 14.0 °F 8.2 °F 12.2 °F 93% 30.23 in 0.2 mi East 3.5 mph - N/A   Overcast
8:56 AM 14.0 °F - 14.0 °F 100% 30.23 in 0.5 mi Calm Calm - N/A   Overcast
9:16 AM 15.8 °F - 15.8 °F 100% 30.23 in 3.0 mi Calm Calm - N/A   Overcast
9:36 AM 15.8 °F 10.2 °F 15.8 °F 100% 30.23 in 0.2 mi East 3.5 mph - N/A   Overcast
9:56 AM 17.6 °F - 17.6 °F 100% 30.23 in 0.2 mi Calm Calm - N/A   Overcast
10:16 AM 17.6 °F - 15.8 °F 93% 30.22 in 1.2 mi Calm Calm - N/A   Mostly Cloudy
10:36 AM 17.6 °F 12.3 °F 15.8 °F 93% 30.22 in 10.0 mi East 3.5 mph - N/A   Partly Cloudy
10:56 AM 17.6 °F - 17.6 °F 100% 30.22 in 10.0 mi Calm Calm - N/A   Mostly Cloudy
11:16 AM 19.4 °F - 19.4 °F 100% 30.22 in 10.0 mi Calm Calm - N/A   Overcast
11:36 AM 21.2 °F - 21.2 °F 100% 30.22 in 10.0 mi Calm Calm - N/A   Overcast
11:56 AM 21.2 °F 16.4 °F 19.4 °F 93% 30.22 in 5.0 mi SSW 3.5 mph - N/A   Overcast
12:16 PM 21.2 °F 16.4 °F 21.2 °F 100% 30.22 in 10.0 mi SW 3.5 mph - N/A   Overcast
12:36 PM 21.2 °F 16.4 °F 21.2 °F 100% 30.21 in 10.0 mi WSW 3.5 mph - N/A   Scattered Clouds
12:56 PM 23.0 °F 15.8 °F 21.2 °F 93% 30.21 in 10.0 mi SW 5.8 mph - N/A   Partly Cloudy
1:16 PM 23.0 °F 17.0 °F 21.2 °F 93% 30.21 in 10.0 mi WSW 4.6 mph - N/A   Clear
1:36 PM 24.8 °F 19.1 °F 23.0 °F 93% 30.20 in 10.0 mi WSW 4.6 mph - N/A   Clear
1:56 PM 24.8 °F 17.9 °F 24.8 °F 100% 30.20 in 10.0 mi WSW 5.8 mph - N/A   Clear
2:16 PM 26.6 °F 19.1 °F 24.8 °F 93% 30.20 in 10.0 mi West 6.9 mph - N/A   Clear
2:56 PM 26.6 °F 17.5 °F 24.8 °F 93% 30.19 in 10.0 mi West 9.2 mph - N/A   Clear
3:16 PM 26.6 °F 16.8 °F 24.8 °F 93% 30.19 in 10.0 mi WSW 10.4 mph - N/A   Clear
3:36 PM 28.4 °F 19.7 °F 26.6 °F 93% 30.18 in 10.0 mi West 9.2 mph - N/A   Clear
3:56 PM 28.4 °F 19.7 °F 26.6 °F 93% 30.18 in 10.0 mi West 9.2 mph - N/A   Clear
4:16 PM 28.4 °F 19.1 °F 26.6 °F 93% 30.18 in 10.0 mi West 10.4 mph - N/A   Clear
4:36 PM 28.4 °F 18.5 °F 26.6 °F 93% 30.17 in 10.0 mi West 11.5 mph - N/A   Clear
4:56 PM 28.4 °F 19.1 °F 26.6 °F 93% 30.17 in 10.0 mi West 10.4 mph - N/A   Clear
5:16 PM 30.2 °F 22.6 °F 26.6 °F 86% 30.16 in 10.0 mi West 8.1 mph - N/A   Clear
5:36 PM 30.2 °F 21.9 °F 26.6 °F 86% 30.16 in 10.0 mi West 9.2 mph - N/A   Clear
5:56 PM 30.2 °F 22.6 °F 26.6 °F 86% 30.16 in 10.0 mi West 8.1 mph - N/A   Clear
6:16 PM 30.2 °F 20.8 °F 26.6 °F 86% 30.15 in 10.0 mi WSW 11.5 mph - N/A   Clear
6:36 PM 30.2 °F 22.6 °F 26.6 °F 86% 30.15 in 10.0 mi WSW 8.1 mph - N/A   Clear
6:56 PM 30.2 °F 20.8 °F 26.6 °F 86% 30.14 in 10.0 mi West 11.5 mph - N/A   Clear
7:16 PM 30.2 °F 21.9 °F 26.6 °F 86% 30.14 in 10.0 mi West 9.2 mph - N/A   Clear
7:36 PM 30.2 °F 22.6 °F 26.6 °F 86% 30.14 in 10.0 mi WSW 8.1 mph - N/A   Clear
7:56 PM 30.2 °F 21.3 °F 26.6 °F 86% 30.13 in 10.0 mi West 10.4 mph - N/A   Clear
8:16 PM 30.2 °F 21.3 °F 26.6 °F 86% 30.13 in 10.0 mi West 10.4 mph - N/A   Clear
8:36 PM 30.2 °F 22.6 °F 26.6 °F 86% 30.13 in 10.0 mi West 8.1 mph - N/A   Clear
8:56 PM 30.2 °F 21.3 °F 26.6 °F 86% 30.13 in 10.0 mi West 10.4 mph - N/A   Clear
9:16 PM 30.2 °F 21.3 °F 26.6 °F 86% 30.12 in 10.0 mi West 10.4 mph - N/A   Clear
9:36 PM 28.4 °F 19.7 °F 26.6 °F 93% 30.12 in 10.0 mi West 9.2 mph - N/A   Clear
9:56 PM 28.4 °F 19.7 °F 26.6 °F 93% 30.12 in 10.0 mi West 9.2 mph - N/A   Clear
10:16 PM 28.4 °F 19.7 °F 26.6 °F 93% 30.12 in 10.0 mi WSW 9.2 mph - N/A   Clear
10:36 PM 28.4 °F 19.1 °F 26.6 °F 93% 30.12 in 10.0 mi West 10.4 mph - N/A   Clear
10:56 PM 26.6 °F 16.8 °F 24.8 °F 93% 30.12 in 10.0 mi West 10.4 mph - N/A   Clear
11:16 PM 26.6 °F 16.2 °F 24.8 °F 93% 30.11 in 10.0 mi West 11.5 mph - N/A   Clear
11:36 PM 26.6 °F 16.2 °F 24.8 °F 93% 30.11 in 10.0 mi West 11.5 mph - N/A   Clear
11:56 PM 26.6 °F 16.2 °F 24.8 °F 93% 30.11 in 10.0 mi West 11.5 mph - N/A   Clear